星链-2576 (STARLINK-2576 )

导读

STARLINK-2576是美国SpaceX星链星座的v1.0版本通信卫星,于2021年5月4日由猎鹰9号火箭发射入轨。星链项目旨在搭建全球低轨卫星互联网,为偏远地区提供高速宽带服务。该卫星运行在近地轨道,采用平板设计与霍尔推进系统,具备自主离轨能力,服役寿命约5-7年,是SpaceX构建全球天基通信网络的组成部分。

基本信息
目录编号:
48400
目录名称:
STARLINK-2576
国际标识:
2021-038AZ
轨道中心:
EARTH
卫星名称:
星链-2576
卫星全名:
星链-2576 (STARLINK-2576 )
卫星状态:
在轨 (已飞行1956 天)
发射日期:
2021-05-04 UTC
国别 :
美国 (US)
星等 :
--
该卫星已列入 空间交会检测服务 Space Conjunction Data Service (SCDS) ,当前飞行风险评估等级: 无高风险
轨道信息
数据来源 国际轨道数据 AOE轨道数据
星历时间 2026-09-09T21:23:31+0800
1天前
查看轨道信息
2026-09-06T22:00:00+0800
4天前
查看轨道信息
半长轴 6848.853km 6848.852km
偏心率 0.0001151 0.0001201
轨道倾角 53.160° 53.158°
近地点辐角 93.289° 92.714°
升交点赤经 197.191° 211.044°
平近点角 266.825° 55.605°
近地点 469.927km 469.892km
远地点 471.505km 471.538km
周期 94.013分钟 94.013分钟
每日圈数 15.317081 15.317086
详细信息
固有亮度:
5
最大亮度:
2.5
卫星平台:
Starlink V1.0
覆盖范围:
全球
运营商:
太空探索技术公司
运营商所在国:
美国
制造商(研发单位):
太空探索技术公司
制造商所在国:
美国
使用方式:
暂无
卫星简介
星链(Starlink)计划是由太空探索技术公司(SpaceX)提出的一个巨型低轨卫星互联网星座项目,计划在2019年至2024年间在太空搭建由约1.2万颗卫星组成的“星链”网络,其中1584颗将部署在地球上空550千米处的近地轨道,并从2020年开始工作。该卫星仍在工作。
2D轨道图
3D轨道图
轨道高度分析图
轨道倾角分析图
轨道综合分析图
查看轨道综合分析图
与全量物体交会距离演化趋势
与全量物体交会风险概率演化趋势